Regional Weather Roundup
Issued by NWS Cleveland, OH

Home | Current Version | Previous Version | Text Only | Print | Product List | Glossary Off
Versions: 1 2 3 4 5 6 7 8 9 10 11 12 13 14 15 16 17 18 19 20 21 22 23 24 25 26 27 28 29 30 31 32 33 34 35 36 37 38 39 40 41 42 43 44 45 46 47 48 49 50

182
ASUS41 KCLE 290212
RWRCLE
OHIO REGIONAL WEATHER ROUNDUP
NATIONAL WEATHER SERVICE WILMINGTON, OH
1000 PM EDT WED JUN 28 2017

NOTE: "FAIR" INDICATES FEW OR NO CLOUDS BELOW 12,000 FEET WITH NO
SIGNIFICANT WEATHER AND/OR OBSTRUCTIONS TO VISIBILITY.

OHZ001>008-015>018-024>027-034-035-043-044-290300-
   NORTHWEST OHIO

CITY           SKY/WX    TMP DP  RH WIND       PRES   REMARKS
DEFIANCE       FAIR      70  52  52 S8        29.95R
FINDLAY        FAIR      71  52  50 S14       29.95F
TOLEDO EXPRESS MOCLDY    72  52  49 S8        29.94S
TOLEDO EXEC    MOCLDY    73  53  49 S12       29.95F
LIMA           FAIR      70  56  61 S9        29.97F
$$

OHZ009>014-019>023-028>033-038-089-290300-
   NORTHEAST OHIO

CITY           SKY/WX    TMP DP  RH WIND       PRES   REMARKS
CLE-HOPKINS    MOCLDY    73  53  49 S12       30.02F
CLE-LAKEFRONT  FAIR      73  51  46 S9        29.99F
CUY CO. ARPT   NOT AVBL
LORAIN-ELYRIA  FAIR      71  49  45 S10       30.00F
ASHTABULA      FAIR      68  53  58 S5        30.04S
AKRON-CANTON   FAIR      68  52  56 S12       30.05S
WOOSTER        FAIR      67  53  61 S7        30.05S
MANSFIELD      FAIR      68  52  56 S9        30.03F
YOUNGSTOWN     MOCLDY    68  51  54 S8        30.05S
$$

OHZ042-051>053-060>062-070>072-077>081-290300-
  SOUTHWEST OHIO

CITY           SKY/WX    TMP DP  RH WIND       PRES   REMARKS
CINC-COVINGTON MOCLDY    71  57  61 S7        30.01F
CINC-LUNKEN    FAIR      71  59  65 SW3       30.01F
HAMILTON       FAIR      69  56  62 CALM      30.01S
DAYTON         MOCLDY    71  52  50 S8        30.02R
WRIGHT-PAT AFB FAIR      71  53  53 S5        30.01R
DAYTON GENERAL FAIR      68  54  60 S6        30.01R
WILMINGTON     FAIR      67  56  67 S5        30.02S
$$

OHZ036-037-039>041-045>050-054>059-063>069-073>076-082>088-290300-
  CENTRAL AND SOUTHEAST OHIO

CITY           SKY/WX    TMP DP  RH WIND       PRES   REMARKS
COLUMBUS       MOCLDY    72  54  53 S8        30.02F
OSU AIRPORT    FAIR      72  54  53 S9        30.02F
BOLTON FIELD   FAIR      67  55  63 S7        30.03S
RICKENBACK AFB FAIR      66  55  66 SE6       30.02F
NEWARK         FAIR      67  54  63 CALM      30.03F
MARION         FAIR      67  52  58 S7        30.02S
LANCASTER      FAIR      67  53  61 SE5       30.04F
ZANESVILLE     FAIR      65  54  67 S5        30.05F
NEW PHILLY     FAIR      66  56  70 SE6       30.06F
$$




USA.gov is the U.S. government's official web portal to all federal, state and local government web resources and services.